Weather History for Lansing, MI

Change the Weather History Date:

Thursday, February 13, 2014

  Actual Average Record
Temperature  
Mean Temperature 24 °F 25 °F  
Max Temperature 31 °F 33 °F 59 °F (1876)
Min Temperature 16 °F 18 °F -25 °F (1875)
Degree Days  
Heating Degree Days 41 40  
Month to date heating degree days 670 528  
Since 1 July heating degree days 4862 4368  
Cooling Degree Days 0 0  
Month to date cooling degree days 0 0  
Year to date cooling degree days 0 0  
Moisture  
Dew Point 9 °F    
Average Humidity 50    
Maximum Humidity 67    
Minimum Humidity 32    
Precipitation  
Precipitation T in 0.05 in 1.97 in (1938)
Month to date precipitation 0.72 0.61  
Year to date precipitation 2.88 2.26  
Snow  
Snow T in 0.40 in 5.90 in (1946)
Month to date snowfall 11.3 5.6  
Since 1 July snowfall 51.3 36.2  
Snow Depth 15.00 in    
Sea Level Pressure  
Sea Level Pressure 29.84 in    
Wind  
Wind Speed 8 mph (SSE)    
Max Wind Speed 18 mph    
Max Gust Speed 24 mph    
Visibility 9 miles    
Events Snow    
T = Trace of Precipitation, MM = Missing Value Source: NWS Daily Summary

Daily Weather History Graph

Daily Weather History Graph

Search for Another Location

Airport:

Trip Planner

Search our weather history database for the weather conditions in past years. The results will help you decide how hot, cold, wet, or windy it might be!

Date:

Astronomy

Feb. 13, 2014 Rise Set
Actual Time 7:38 AM EST 6:07 PM EST
Civil Twilight 7:09 AM EST 6:36 PM EST
Nautical Twilight 6:35 AM EST 7:09 PM EST
Astronomical Twilight 6:03 AM EST 7:42 PM EST
Moon 5:15 PM EST (2/13) 6:31 AM EST (2/13)
Length of Visible Light 11h 27m
Length of Day
10h 29m
Waxing Gibbous, 98% of the Moon is Illuminated
Feb 13
Waxing Gibbous
Feb 14
Full
Feb 22
Last Quarter
Mar 1
New
Mar 8
First Quarter

Hourly Weather History & Observations

Time (EST) Temp. Windchill Dew Point Humidity Pressure Visibility Wind Dir Wind Speed Gust Speed Precip Events Conditions
12:53 AM 19.9 °F 14.9 °F 7.0 °F 57% 30.08 in 10.0 mi South 3.5 mph - N/A   Overcast
1:53 AM 19.9 °F 14.9 °F 7.0 °F 57% 30.07 in 10.0 mi South 3.5 mph - N/A   Overcast
2:53 AM 19.9 °F 12.1 °F 7.0 °F 57% 30.07 in 10.0 mi SE 5.8 mph - N/A   Overcast
3:53 AM 19.0 °F 9.0 °F 7.0 °F 59% 30.06 in 10.0 mi SSE 8.1 mph - N/A   Overcast
4:53 AM 18.0 °F 11.1 °F 7.0 °F 62% 30.04 in 10.0 mi South 4.6 mph - N/A   Overcast
5:53 AM 19.0 °F - 8.1 °F 62% 30.01 in 10.0 mi Calm Calm - N/A   Overcast
6:53 AM 19.0 °F - 8.1 °F 62% 29.99 in 10.0 mi Calm Calm - N/A   Overcast
7:53 AM 18.0 °F - 7.0 °F 62% 29.99 in 9.0 mi Calm Calm - N/A   Scattered Clouds
8:53 AM 17.1 °F - 8.1 °F 68% 29.97 in 7.0 mi Calm Calm - N/A   Clear
9:53 AM 19.9 °F 9.3 °F 9.0 °F 62% 29.94 in 8.0 mi SSE 9.2 mph - N/A   Clear
10:53 AM 21.9 °F 11.7 °F 6.1 °F 51% 29.92 in 10.0 mi SE 9.2 mph - N/A   Clear
11:53 AM 24.1 °F 13.7 °F 8.1 °F 51% 29.89 in 10.0 mi SE 10.4 mph - N/A   Clear
12:53 PM 26.1 °F 17.6 °F 7.0 °F 44% 29.83 in 10.0 mi SSE 8.1 mph - N/A   Clear
1:53 PM 28.9 °F 17.7 °F 5.0 °F 36% 29.78 in 10.0 mi SSE 15.0 mph - N/A   Clear
2:53 PM 30.0 °F 22.4 °F 5.0 °F 35% 29.75 in 10.0 mi South 8.1 mph - N/A   Partly Cloudy
3:53 PM 30.9 °F 22.2 °F 6.1 °F 35% 29.72 in 10.0 mi SSE 10.4 mph - N/A   Mostly Cloudy
4:53 PM 30.9 °F 22.8 °F 6.1 °F 35% 29.68 in 10.0 mi South 9.2 mph - N/A   Overcast
5:53 PM 30.0 °F 19.1 °F 7.0 °F 38% 29.65 in 10.0 mi SSE 15.0 mph - N/A   Overcast
6:53 PM 27.0 °F 15.6 °F 16.0 °F 63% 29.65 in 5.0 mi South 13.8 mph - 0.00 in Snow Light Snow
7:53 PM 27.0 °F 15.6 °F 12.9 °F 56% 29.62 in 10.0 mi SSE 13.8 mph - 0.00 in   Overcast
8:53 PM 25.0 °F 13.6 °F 12.9 °F 60% 29.59 in 10.0 mi SSE 12.7 mph - N/A   Overcast
9:53 PM 25.0 °F 14.2 °F 14.0 °F 63% 29.57 in 10.0 mi SSE 11.5 mph - N/A   Overcast
10:53 PM 25.0 °F 15.5 °F 14.0 °F 63% 29.53 in 10.0 mi South 9.2 mph - N/A   Overcast
11:53 PM 25.0 °F 15.5 °F 15.1 °F 66% 29.51 in 9.0 mi South 9.2 mph - N/A   Overcast